| time (UTC) | temp F | wind direction | speed knots | gust knots | rain 1hr in | rain 24hr in | rain mn in | humidity % | barometer mb |
| 20260504080341 | 40 | 230 | 0.0 | 0.9 | 0.00 | 0.00 | 0.00 | 78 | 1015.3 |
| 20260504070329 | 41 | 230 | 0.0 | 0.9 | 0.00 | 0.00 | 0.00 | 79 | 1015.4 |
| 20260504050327 | 43 | 231 | 0.0 | 0.9 | 0.00 | 0.00 | 0.00 | 75 | 1015.5 |
| 20260504045324 | 43 | 231 | 0.0 | 0.9 | 0.00 | 0.00 | 0.00 | 74 | 1015.5 |
| 20260504044339 | 42 | 172 | 0.0 | 0.0 | 0.00 | 0.00 | 0.00 | 75 | 1015.4 |
| 20260504043325 | 43 | 226 | 0.9 | 0.9 | 0.00 | 0.00 | 0.00 | 74 | 1015.4 |
| 20260504041337 | 42 | 238 | 0.0 | 0.9 | 0.00 | 0.00 | 0.00 | 76 | 1015.3 |
| 20260504040331 | 43 | 238 | 0.0 | 0.9 | 0.00 | 0.00 | 0.00 | 75 | 1015.1 |
| 20260504035329 | 43 | 238 | 0.0 | 0.0 | 0.00 | 0.00 | 0.00 | 75 | 1015.1 |
| 20260504034346 | 43 | 238 | 0.0 | 0.9 | 0.00 | 0.00 | 0.00 | 74 | 1015.1 |
| 20260504032330 | 44 | 238 | 0.0 | 0.9 | 0.00 | 0.00 | 0.00 | 73 | 1015.0 |
| 20260504030324 | 45 | 238 | 0.0 | 0.9 | 0.00 | 0.00 | 0.00 | 71 | 1014.9 |
| 20260504025337 | 45 | 238 | 0.0 | 0.9 | 0.00 | 0.00 | 0.00 | 68 | 1014.9 |
| 20260504024336 | 46 | 238 | 0.0 | 0.9 | 0.00 | 0.00 | 0.00 | 67 | 1014.8 |
| 20260504022346 | 46 | 238 | 0.0 | 0.0 | 0.00 | 0.00 | 0.00 | 66 | 1014.8 |
| 20260504021337 | 47 | 238 | 0.0 | 0.9 | 0.00 | 0.00 | 0.00 | 64 | 1014.8 |
| 20260504020328 | 47 | 238 | 0.0 | 0.9 | 0.00 | 0.00 | 0.00 | 64 | 1014.8 |
| 20260504015324 | 47 | 238 | 0.0 | 0.0 | 0.00 | 0.00 | 0.00 | 64 | 1014.8 |
| 20260504014343 | 47 | 238 | 0.0 | 0.0 | 0.00 | 0.00 | 0.00 | 63 | 1014.8 |
| 20260504013330 | 48 | 238 | 0.0 | 0.0 | 0.00 | 0.00 | 0.00 | 59 | 1014.6 |
| 20260504012328 | 49 | 238 | 0.0 | 0.9 | 0.00 | 0.00 | 0.00 | 59 | 1014.6 |
| 20260504011325 | 49 | 238 | 0.0 | 0.0 | 0.00 | 0.00 | 0.00 | 56 | 1014.4 |
| 20260504010337 | 50 | 238 | 0.0 | 0.9 | 0.00 | 0.00 | 0.00 | 55 | 1014.4 |
| 20260504005323 | 51 | 238 | 0.0 | 0.9 | 0.00 | 0.00 | 0.00 | 55 | 1014.4 |
| 20260504004354 | 52 | 238 | 0.0 | 0.9 | 0.00 | 0.00 | 0.00 | 50 | 1014.2 |
| 20260504002324 | 55 | 238 | 0.0 | 0.9 | 0.00 | 0.00 | 0.00 | 46 | 1014.1 |
| 20260504001335 | 56 | 235 | 0.9 | 1.7 | 0.00 | 0.00 | 0.00 | 44 | 1014.0 |
| 20260504000337 | 56 | 239 | 0.9 | 2.6 | 0.00 | 0.00 | 0.00 | 42 | 1013.8 |
| 20260503235323 | 57 | 264 | 1.7 | 4.3 | 0.00 | 0.00 | 0.00 | 41 | 1013.8 |
| 20260503233339 | 58 | 274 | 1.7 | 4.3 | 0.00 | 0.00 | 0.00 | 38 | 1013.4 |
| 20260503232338 | 59 | 259 | 2.6 | 5.2 | 0.00 | 0.00 | 0.00 | 38 | 1013.4 |
| 20260503231333 | 59 | 241 | 2.6 | 5.2 | 0.00 | 0.00 | 0.00 | 37 | 1013.5 |
| 20260503230326 | 59 | 284 | 1.7 | 12.2 | 0.00 | 0.00 | 0.00 | 36 | 1013.5 |
| 20260503225338 | 60 | 255 | 3.5 | 7.0 | 0.00 | 0.00 | 0.00 | 36 | 1013.5 |
| 20260503224324 | 60 | 217 | 2.6 | 10.4 | 0.00 | 0.00 | 0.00 | 36 | 1013.4 |
| 20260503223331 | 60 | 203 | 1.7 | 12.2 | 0.00 | 0.00 | 0.00 | 35 | 1013.4 |
| 20260503221325 | 60 | 243 | 1.7 | 10.4 | 0.00 | 0.00 | 0.00 | 35 | 1013.5 |
| 20260503220321 | 60 | 288 | 3.5 | 7.8 | 0.00 | 0.00 | 0.00 | 36 | 1013.4 |
| 20260503215347 | 60 | 274 | 4.3 | 12.2 | 0.00 | 0.00 | 0.00 | 33 | 1013.5 |
| 20260503213337 | 60 | 277 | 3.5 | 12.2 | 0.00 | 0.00 | 0.00 | 34 | 1013.4 |
| 20260503211334 | 61 | 297 | 4.3 | 11.3 | 0.00 | 0.00 | 0.00 | 33 | 1013.4 |
| 20260503210331 | 61 | 225 | 5.2 | 9.6 | 0.00 | 0.00 | 0.00 | 34 | 1013.4 |
| 20260503205328 | 60 | 317 | 5.2 | 13.0 | 0.00 | 0.00 | 0.00 | 34 | 1013.4 |
| 20260503204343 | 60 | 287 | 3.5 | 9.6 | 0.00 | 0.00 | 0.00 | 34 | 1013.4 |
| 20260503203323 | 60 | 17 | 4.3 | 8.7 | 0.00 | 0.00 | 0.00 | 35 | 1013.4 |
| 20260503202342 | 60 | 273 | 6.1 | 10.4 | 0.00 | 0.00 | 0.00 | 34 | 1013.5 |
| 20260503201342 | 60 | 238 | 4.3 | 10.4 | 0.00 | 0.00 | 0.00 | 35 | 1013.7 |
| 20260503200338 | 60 | 257 | 4.3 | 13.9 | 0.00 | 0.00 | 0.00 | 34 | 1013.9 |
| 20260503195322 | 59 | 1 | 3.5 | 13.0 | 0.00 | 0.00 | 0.00 | 34 | 1014.0 |
| 20260503193336 | 58 | 309 | 7.0 | 13.9 | 0.00 | 0.00 | 0.00 | 33 | 1014.3 |
| 20260503192336 | 58 | 225 | 5.2 | 13.0 | 0.00 | 0.00 | 0.00 | 32 | 1014.4 |
| 20260503191335 | 58 | 280 | 5.2 | 13.9 | 0.00 | 0.00 | 0.00 | 33 | 1014.4 |
| 20260503190324 | 58 | 242 | 4.3 | 10.4 | 0.00 | 0.00 | 0.00 | 36 | 1014.5 |
| 20260503184510 | 57 | 233 | 3.5 | 10.4 | 0.00 | 0.00 | 0.00 | 36 | 1014.8 |
| 20260503183336 | 57 | 341 | 6.1 | 11.3 | 0.00 | 0.00 | 0.00 | 36 | 1014.9 |
| 20260503182329 | 57 | 279 | 4.3 | 12.2 | 0.00 | 0.00 | 0.00 | 37 | 1014.9 |
| 20260503181326 | 57 | 310 | 3.5 | 13.0 | 0.00 | 0.00 | 0.00 | 39 | 1015.1 |
| 20260503180338 | 56 | 305 | 6.1 | 17.4 | 0.00 | 0.00 | 0.00 | 37 | 1015.1 |
| 20260503175326 | 57 | 245 | 4.3 | 11.3 | 0.00 | 0.00 | 0.00 | 39 | 1015.1 |
| 20260503174325 | 56 | 41 | 5.2 | 14.8 | 0.00 | 0.00 | 0.00 | 37 | 1015.2 |
| 20260503173342 | 56 | 278 | 4.3 | 12.2 | 0.00 | 0.00 | 0.00 | 38 | 1015.1 |
| 20260503172338 | 55 | 38 | 3.5 | 12.2 | 0.00 | 0.00 | 0.00 | 41 | 1015.3 |
| 20260503171326 | 54 | 326 | 5.2 | 11.3 | 0.00 | 0.00 | 0.00 | 38 | 1015.4 |
| 20260503170338 | 55 | 322 | 6.1 | 12.2 | 0.00 | 0.00 | 0.00 | 38 | 1015.5 |
| 20260503131325 | 46 | 317 | 7.0 | 11.3 | 0.00 | 0.00 | 0.00 | 56 | 1016.5 |
| 20260503130341 | 46 | 269 | 4.3 | 10.4 | 0.00 | 0.00 | 0.00 | 59 | 1016.5 |
| 20260503110325 | 42 | 305 | 3.5 | 5.2 | 0.00 | 0.00 | 0.00 | 63 | 1015.4 |